www.pogodaiklimat.ru

Погода и климат >> Архив погоды >> Россия >> Чечня >> Шелковская


ПОГОДА в Шелковской

  • Прогноз погоды в Шелковской
  • Монитор погоды в Шелковской

АРХИВ ПОГОДЫ в Шелковской

Время (UTC), дата Ветер
(напр.,м/с)
 
Видим.   Явления Облачность Т
(С)
Тd
(С)
f
(%)
Тe
(С)
Тes
(С)
Комфортность P
(гПа)
Po
(гПа)
Тmin
(С)
Tmax
(С)
R
(мм)
R24
(мм)
S
(см)
03 18.06 С 1 10 км 6/0
[Ac lent]
+20.5 +17.5 83 +25 +26 комфорт 1010.9 1009.6 +19.3 1
06 18.06 В 1 10 км 3/0
[Ac lent Ci fib]
+28.0 +16.1 48 +31 +44 душно 1010.8 1009.5
09 18.06 ЮВ 2 10 км 5/0
[Ac lent]
+31.7 +14.6 36 +34 +45 душно 1010.1 1008.8
12 18.06 СВ 4 10 км 3/3 600 м
[Cu hum Ac lent]
+33.7 +11.3 26 +34 +39 очень
жарко
1008.8 1007.6
15 18.06 В 4 10 км 4/3 600 м
[Cu hum Ac lent]
+30.9 +11.6 31 +31 +32 жарко 1009.0 1007.7 +33.7
18 18.06 В 3 10 км 3/0
[Ac lent]
+24.2 +12.8 49 +26 +26 жарко 1009.9 1008.6
21 18.06 ЮВ 1 10 км 3/0
[Ac lent]
+20.6 +15.4 72 +25 +25 комфорт 1009.6 1008.3
00 19.06 Ю 1 10 км 3/0
[Ac lent]
+18.4 +15.9 85 +20 +20 1009.2 1007.9
03 19.06 Ю 2 10 км ясно +21.2 +15.3 69 +24 +26 комфорт 1009.3 1008.0 +18.4
06 19.06 В 1 10 км 3/1 600 м
[Cu med, cong Ac lent]
+29.4 +15.7 43 +32 +43 душно 1009.5 1008.2
09 19.06 В 5 10 км 3/1 600 м
[Cu med, cong Ac lent]
+34.4 +10.7 24 +34 +42 очень
жарко
1008.5 1007.3
12 19.06 В 6
{11}
10 км 3/0
[Ac lent]
+34.2 +10.4 23 +33 +37 жарко 1008.1 1006.9
15 19.06 В 5 10 км 3/0
[Ac lent]
+30.8 +10.7 29 +31 +31 жарко 1008.3 1007.0 +34.4
18 19.06 В 2 10 км ясно +23.3 +11.9 49 +26 +26 жарко 1009.2 1007.9
21 19.06 СВ 3 10 км 3/0
[Ac lent]
+18.5 +12.7 69 +19 +19 1008.4 1007.1
00 20.06 В 1 н/о н/о +18.0 +14.6 81 +19 +19 1008.0 1006.7
03 20.06 В 1 10 км 4/0
[Ac lent]
+19.5 +16.3 82 +23 +24 комфорт 1008.6 1007.3 +15.4
06 20.06 В 4 10 км 3/0
[Ac cast Ci fib]
+29.4 +15.3 42 +32 +39 душно 1008.9 1007.6
09 20.06 В 5 10 км 5/0
[Ac lent Ci fib]
+35.0 +9.8 22 +34 +42 очень
жарко
1007.6 1006.4
12 20.06 В 4 10 км 8/0
[Ac lent]
+33.0 +11.2 26 +33 +36 жарко 1007.4 1006.2
15 20.06 ЮВ 3 10 км 10/0
[Ac lent]
+29.3 +13.0 37 +31 +31 жарко 1008.4 1007.1 +35.0
18 20.06 В 2 10 км 8/0
[Ac lent]
+24.9 +15.9 57 +28 +28 жарко 1009.1 1007.8
21 20.06 В 1 10 км 8/0
[Ac lent]
+23.2 +17.9 72 +29 +29 душно 1008.6 1007.3
00 21.06 В 2 10 км 8/0
[Ac lent]
+22.5 +19.5 83 +29 +29 очень
душно
1009.2 1007.9
03 21.06 З 2 10 км 10/0
[Ac lent]
+22.6 +19.5 83 +29 +29 очень
душно
1010.6 1009.3 +22.5
06 21.06 ЮЗ 1 10 км 10/0
[Ac lent]
+26.9 +20.5 68 +33 +36 очень
душно
1011.5 1010.2
09 21.06 ЮЗ 2 10 км 10/0
[Ac lent]
+28.3 +19.0 57 +34 +38 очень
душно
1011.6 1010.3
12 21.06 ЮЗ 3 10 км 10/3 600 м
[Cb cap Ac lent]
+27.6 +18.5 58 +33 +34 очень
душно
1011.4 1010.1
15 21.06 СВ 1 10 км 10/0
[Ac lent]
+26.9 +18.9 62 +32 +32 очень
душно
1011.7 1010.4 +30.2
18 21.06 ЮВ 1 10 км 8/0
[Ac lent]
+23.4 +19.2 77 +30 +30 очень
душно
1012.5 1011.2
21 21.06 ЮЗ 2 10 км 6/0
[Ac lent]
+20.6 +18.1 86 +25 +25 комфорт 1012.2 1010.9
00 22.06 В 1 10 км 6/0
[Ac lent]
+18.6 +17.3 92 +21 +21 комфорт 1012.1 1010.8
03 22.06 З 2 10 км 4/0
[Ac lent]
+22.0 +17.8 77 +27 +28 душно 1012.9 1011.6 +18.6
06 22.06 В 2 10 км 3/0
[Ac lent Ci fib]
+29.1 +18.0 51 +34 +44 очень
душно
1013.0 1011.7
09 22.06 В 4 10 км 4/0
[Ac lent]
+33.2 +13.7 31 +34 +43 очень
жарко
1011.7 1010.4
12 22.06 СВ 5 10 км 6/0
[Ac lent]
+35.2 +16.0 32 +37 +41 очень
душно
1010.4 1009.2
15 22.06 В 4 10 км 6/0
[Ac lent]
+32.1 +13.4 32 +33 +34 жарко 1011.2 1009.9 +35.2
18 22.06 В 1 10 км 6/0
[Ac lent]
+25.6 +16.7 58 +29 +29 душно 1012.2 1010.9
21 22.06 В 1 10 км 3/0
[Ac lent]
+21.4 +18.0 81 +26 +26 душно 1011.6 1010.3
00 23.06 СВ 1 10 км 3/0
[Ac lent]
+17.4 +15.0 86 +18 +18 1011.1 1009.8
03 23.06 штиль 0 10 км 3/0
[Ac lent]
+20.0 +19.2 95 +23 +25 комфорт 1012.2 1010.9 +17.4
06 23.06 В 3 10 км 4/0
[Ac lent Ci fib]
+28.0 +21.4 67 +35 +44 очень
душно
1012.4 1011.1
09 23.06 В 4 10 км 3/0
[Ci fib]
+34.6 +18.4 38 +39 +51 опасность
солнечного
удара
1010.6 1009.4
12 23.06 В 7-11
{12}
10 км 5/0
[Ac lent Ci fib]
+35.2 +14.2 28 +36 +39 очень
жарко
1009.6 1008.4
15 23.06 В 4
{12}
10 км 9/9 600 м
[Sc]
+31.5 +14.1 35 +33 +33 жарко 1011.1 1009.8 +35.2
18 23.06 В 2
{10}
10 км 8/0
[Ac lent]
+26.8 +16.5 53 +30 +30 душно 1011.1 1009.8
21 23.06 СВ 1 10 км ясно +21.9 +18.8 83 +27 +27 душно 1011.5 1010.2
00 24.06 штиль 0 10 км ясно +20.6 +19.4 93 +25 +25 комфорт 1010.9 1009.6
03 24.06 СВ 1 10 км 3/0
[Ac lent Ci fib]
+22.5 +19.8 85 +29 +31 очень
душно
1011.1 1009.8 +20.6
06 24.06 З 4 10 км 4/0
[Ac lent Ci fib]
+29.2 +19.1 55 +35 +42 очень
душно
1011.3 1010.0
09 24.06 ЮЗ 4 10 км 8/0
[Ac As Ci fib]
+34.2 +16.7 35 +37 +45 очень
душно
1010.0 1008.8
12 24.06 ЮЗ 4 10 км 8/0
[Ac As Ci fib]
+37.4 +15.3 27 +39 +44 очень
душно
1009.0 1007.8
15 24.06 Ю 3 10 км 8/6 600 м
[Cu med, cong Ac lent Ci fib]
+34.7 +17.0 35 +38 +38 очень
душно
1009.0 1007.8 +37.4
18 24.06 ЮЗ 4 4000 м слаб. ливневой дождь 10/10 300 м
[Cb cap]
+25.8 +20.8 74 +32 +32 очень
душно
1012.6 1011.3
21 24.06 З 3 10 км {ливн. осадки} 10/10 600 м
[Cu med, cong]
+24.0 +18.7 72 +29 +29 душно 1012.1 1010.8
00 25.06 Ю 2 10 км 6/0
[Ac lent]
+22.1 +18.1 78 +27 +27 душно 1012.2 1010.9

 

Местоположение метеостанции Шелковская (Чечня, Россия): широта 43.53 долгота 46.37 высота над уровнем моря 13 м.

В архиве по умолчанию представлена погода в Шелковской за последнюю неделю. Архивные данные за месяц целиком и за предыдущие месяцы, начиная с января 2011 года, Вы можете получить, выбрав интересующий диапазон дат из раскрывающегося списка и нажав кнопку "Ввод!".


*Определитесь, кто Вы:
робот инопланетянин человек

Внимание! Время в таблицах - всемирное. Для получения местного времени необходимо прибавить поправку, которая равна 3 ч.

Смотрите также архив погоды в соседних городах и на ближайших метеорологических станциях:

Погода в Гудермесе (Чечня, Россия) (28 км)
Погода в Бабаюрте (Дагестан, Россия) (34 км)
Погода в Хасавюрте (Дагестан, Россия) (35 км)
Погода в Кизляре (Дагестан, Россия) (44 км)
Погода в Грозном (Чечня, Россия) (61 км)
Погода в Терекли-Мектебе (Дагестан, Россия) (77 км)
Погода в Наурской (Чечня, Россия) (86 км)
Погода в Шатое (Чечня, Россия) (91 км)
Погода в Кочубее (Дагестан, Россия) (98 км)
Погода в Буйнакске (Дагестан, Россия) (100 км)

Пояснения к столбцам:

Ветер - указаны скорость ветра в м/с - средняя за 10 мин, порывы в срок и между сроками (в фигурных скобках) и направление, откуда дует ветер: С - северный, СВ - северо-восточный, В - восточный, ЮВ - юго-восточный, Ю - южный, ЮЗ - юго-западный, З - западный, СЗ - северо-западный.
Видимость - горизонтальная дальность видимости в метрах или километрах. При видимости от 1 до 10 км при отсутствии осадков обычно наблюдается дымка, при ухудшении видимости до 1 км и менее - туман. В сухую погоду видимость может ухудшаться дымом, пылью или мглою.
Явления - указаны атмосферные явления, наблюдавшиеся в срок или в последний час перед сроком; фигурными скобками обозначены явления, наблюдавшиеся между сроками (за 1-3 часа до срока); квадратными скобками обозначены град или гололедные отложения с указанием их диаметра в мм.
Облачность - указаны через наклонную черту общая и нижняя облачность в баллах и высота нижней границы облаков в метрах; квадратными скобками обозначены формы облаков: Ci - перистые, Cs - перисто-слоистые, Cc - перисто-кучевые, Ac - высококучевые, As - высокослоистые, Sc - слоисто-кучевые, Ns - слоисто-дождевые, Cu - кучевые, Cb - кучево-дождевые. Подробнее классификацию облаков см. в Атласе облаков (PDF).
T - Температура воздуха - температура, измеренная на высоте 2 м над землей.
Td - Температура точки росы - температура, при понижении до которой содержащийся в воздухе водяной пар достигнет насыщения.
f - Относительная влажность воздуха - влажноcть воздуха, измеренная на высоте 2 м над землей.
Te - Эффективная температура - температура, которую ощущает одетый по сезону человек в тени. Характеристика душности погоды. При расчете учитывается влияние влажности воздуха и скорости ветра на теплоощущения человека.
Tes - Эффективная температура на солнце - температура, которую ощущает человек, с поправкой на солнечный нагрев. Характеристика знойности погоды. Зависит от высоты солнца над горизонтом, облачности и скорости ветра. Ночью, в пасмурную погоду, а также при ветре 12 м/с и более поправка равна нулю.
P - Атмосферное давление - приведенное к уровню моря атмосферное давление.
Po - Атмосферное давление - измеренное на уровне метеостанции атмосферное давление.
Tmin - Минимальная температура - минимум температуры воздуха на высоте 2 м над землей.
Tmax - Максимальная температура - максимум температуры воздуха на высоте 2 м над землей.
R - Количество осадков - Количество выпавших осадков за период времени, мм. При наведении курсора мыши на число - период времени, за который выпало указанное количество осадков.
R24 - Количество осадков - Количество выпавших осадков за 24 часа, мм.
S - Снежный покров - Высота снежного покрова, см. При наведении курсора мыши на число - состояние снежного покрова и степень покрытия местности в баллах.